Home   Weather   Bamenda   Past weeks

Flag for Cameroon Past Weather in Bamenda, Cameroon — Yesterday and Last 2 Weeks

Now
79 °F

Broken clouds.


Feels Like: 82 °F
Forecast: 59 / 78 °F
Wind: No wind

Location: Douala Obs.

Current Time: Sep 26, 2016 at 10:00:16 AM

Latest Report: Sep 26, 2016 at 9:00 AM


Visibility: N/A

Pressure: 29.95 "Hg (25.99 "Hg at 1240m altitude)

Humidity: 84%

Dew Point: 73 °F

Location of BamendaLocation

Past Weather in Bamenda — Graph

°F

Bamenda Temperature Yesterday

Maximum temperature yesterday: 86 °F (at 12:00 PM)
Minimum temperature yesterday: 75 °F (at 2:00 AM)
Average temperature yesterday: 80 °F

High & Low Weather Summary for the Past Weeks

 TemperatureHumidityPressure
High88 °F (Sep 14, 2:00 PM)100% (Sep 12, 6:00 AM)29.98 "Hg (Sep 12, 6:00 AM)
Low72 °F (Sep 16, 7:00 AM)62% (Sep 14, 1:00 PM)29.80 "Hg (Sep 21, 3:00 PM)
Average79 °F89%29.90 "Hg
* Reported Sep 11 9:00 AM — Sep 26 9:00 AM, Bamenda, Weather by CustomWeather, © 2016

Note: Actual official high and low records may vary slightly from our data, if they occured in-between our weather recording intervals... More about our weather records

Advertising

Bamenda Weather History for the Previous 24 Hours

Scroll right to see more
 ConditionsComfort  
Time TempWeatherWind HumidityBarometerVisibility
9:00 AM
Mon, Sep 26
79 °FBroken clouds.No wind84%29.95 "HgN/A
8:00 AM77 °FBroken clouds.2 mph94%29.92 "HgN/A
7:00 AM75 °FBroken clouds.3 mph100%29.89 "HgN/A
6:00 AM75 °FPartly cloudy.2 mph100%29.89 "Hg4 mi
5:00 AM75 °FPartly cloudy.3 mph100%29.86 "Hg4 mi
4:00 AM77 °FPassing clouds.No wind94%29.86 "Hg5 mi
3:00 AM77 °FPartly cloudy.No wind94%29.86 "Hg4 mi
2:00 AM77 °FPartly cloudy.2 mph94%29.86 "HgN/A
1:00 AM77 °FPartly cloudy.2 mph94%29.89 "HgN/A
12:00 AM77 °FPartly cloudy.2 mph94%29.89 "HgN/A
11:00 PM
Sun, Sep 25
77 °FPassing clouds.2 mph94%29.92 "HgN/A
10:00 PM79 °FPassing clouds.3 mph89%29.92 "HgN/A
9:00 PM79 °FPassing clouds.7 mph89%29.89 "HgN/A
8:00 PM79 °FPassing clouds.5 mph89%29.86 "HgN/A
7:00 PM81 °FPassing clouds.6 mph84%29.83 "HgN/A
6:00 PM81 °FPartly sunny.7 mph84%29.83 "HgN/A
5:00 PM82 °FBroken clouds.8 mph79%29.80 "HgN/A
4:00 PM84 °FPartly sunny.6 mph74%29.80 "HgN/A
3:00 PM86 °FScattered clouds.12 mph70%29.80 "HgN/A
2:00 PM86 °FScattered clouds.10 mph66%29.83 "HgN/A
1:00 PM86 °FScattered clouds.8 mph70%29.89 "HgN/A
12:00 PM86 °FScattered clouds.9 mph70%29.89 "HgN/A
11:00 AM84 °FScattered clouds.8 mph66%29.92 "HgN/A
10:00 AM82 °FPartly sunny.3 mph74%29.92 "HgN/A
Weather by CustomWeather, © 2016

See weather overviewHow to use our weather pages